Terug naar catalogus

DELTA 1 DEB

ActiefSSO
NORAD 18671·DEBRIS·🇺🇸 United States

Gelanceerd Nov 6, 1973 vanaf Vandenberg Space Force Base

Loading…

Volgende Passages (komende 24 uur)

TLE

VersSource: Space-Track

Epoch: Sep 12, 2026, 09:03 UTC

1 18671U 73086GZ  26255.37742718  .00000098  00000-0  10459-2 0  9994
2 18671 101.8570 208.6562 0110009 212.1796 300.9569 12.39899229647233

Volg DELTA 1 DEB in realtime met AllMySat

Download on the App Store